Hourly Data Report for June 27, 2021

ATIKOKAN (AUT)
ONTARIO
Current Station Operator: ECCC - MSC

48°45'40.000" N
91°37'41.000" W
389.30 m
6020LPQ
71747
WCH

Download Data

Hourly Data (June 2021)
Hourly Data Report for June 27, 2021
TIME
LST
Temp Definition
°C
Dew Point Definition
°C
Rel Hum Definition
%
Precip. Amount Definition
mm

Wind Dir Definition
10's deg

Wind Spd Definition
km/h
Visibility Definition
km
Stn Press Definition
kPa
Hmdx Definition


Wind Chill Definition


Weather Definition


00:00 13.6 13.2 98 0.0   0   96.49     LegendNANA
01:00 13.2 13.0 98 0.0 0 1   96.50     LegendNANA
02:00 12.8 12.6 98 0.0   0   96.48     LegendNANA
03:00 12.1 11.8 98 0.0   0   96.47     LegendNANA
04:00 11.9 11.6 98 0.0   0   96.47     LegendNANA
05:00 12.7 12.6 99 0.0 0 1   96.50     LegendNANA
06:00 13.8 13.6 99 0.0 6 1   96.53     LegendNANA
07:00 15.1 15.0 99 0.0 0 1   96.56     LegendNANA
08:00 18.5 16.2 87 0.0 24 3   96.60     LegendNANA
09:00 21.0 16.5 76 0.0 18 2   96.63 26   LegendNANA
10:00 22.7 16.1 66 0.0 33 4   96.65 27   LegendNANA
11:00 23.9 12.1 48 0.0 36 3   96.66 26   LegendNANA
12:00 25.0 12.8 47 0.0 8 3   96.64 28   LegendNANA
13:00 24.2 12.6 48 0.0 32 8   96.63 27   LegendNANA
14:00 22.8 14.6 60 0.0 23 9   96.66 27   LegendNANA
15:00 25.5 13.8 48 0.4 21 6   96.62 29   LegendNANA
16:00 26.4 12.2 41 0.0 16 6   96.64 29   LegendNANA
17:00 25.9 12.0 42 0.0 26 6   96.65 28   LegendNANA
18:00 23.6 13.8 54 0.0 30 8   96.72 27   LegendNANA
19:00 22.6 13.7 57 0.0 23 5   96.79 26   LegendNANA
20:00 19.6 13.7 69 0.0 12 4   96.87     LegendNANA
21:00 17.4 14.0 80 0.0 10 4   96.92     LegendNANA
22:00 16.8 13.4 81 0.0 7 7   96.96     LegendNANA
23:00 15.3 13.4 89 0.0 13 2   96.96     LegendNANA

Notes on Data Quality.

Legend

  • E = Estimated
  • M = Missing
  • NA = Not Available*
  • [empty] = Indicates an unobserved value
Date modified: